[[{"header":{"parameterUnit":"m.s-1","parameterCategory":1,"la1":30.2991,"la2":30.254,"lo1":-89.0895,"lo2":-89.0444,"dy":0.0017,"dx":0.0017,"nx":28,"ny":28,"refTime":"2025-06-09T09:00:00:Z","depth":0,"parameterNumber":2,"parameterNumberName":"U-component_of_WINDS"},"data":[0,0,0,0,0,0,0,0,0,0,0,0,0,0,0,0,0,0,0,0,0,0,0,0,0,0,0,0,0,0,0,0,0,0,0,0,0,0,0,0,0,0,0,0,0,0,0,0,0,0,0,0,0,0,0,0,0,0,4.1253,4.1254,0,4.1354,4.1355,4.1356,4.1371,4.137,4.1369,4.1368,4.1473,4.1476,4.148,0,0,0,0,0,0,0,0,0,0,0,0,0,4.1073,4.1076,4.1252,4.1254,4.1255,4.1353,4.1355,4.1356,4.1371,4.137,4.1369,4.1368,4.1472,4.1476,4.148,0,0,0,0,0,0,0,0,0,0,0,0,0,4.116,4.1077,4.1252,4.1274,4.1277,4.1353,4.1355,4.1357,4.1371,4.137,4.1369,4.1367,4.147,4.1475,4.1481,4.1542,0,0,4.1498,4.15,0,0,0,0,0,0,0,0,4.1155,4.1167,4.127,4.1273,4.1276,4.1348,4.133,4.1419,4.1372,4.1336,4.1368,4.1367,4.1433,4.1441,4.1463,4.1547,4.1552,4.1498,4.1501,4.1504,4.1505,0,0,0,0,0,0,0,4.1149,4.1162,4.1293,4.1271,4.1275,4.1279,4.129,4.1347,4.1391,4.1339,4.134,4.1352,4.1434,4.1458,4.1466,4.1553,4.1498,4.1503,4.1506,4.1508,4.1692,4.1694,0,0,0,0,0,0,4.1139,4.1157,4.1289,4.1296,4.1211,4.1284,4.1296,4.1327,4.139,4.1398,4.1353,4.1352,4.1449,4.1459,4.1469,4.1545,4.1504,4.1509,4.1512,4.1691,4.1693,4.1694,0,0,0,0,0,0,4.1135,4.1151,4.1285,4.1227,4.1244,4.1288,4.1323,4.1329,4.1353,4.1401,4.1409,4.1369,4.1448,4.1462,4.1524,4.1549,4.1511,4.1516,4.1689,4.1691,4.1694,4.1697,0,0,0,0,0,0,4.113,4.1149,4.1173,4.1227,4.1247,4.1338,4.1324,4.1332,4.1362,4.1362,4.1418,4.1426,4.1448,4.1516,4.1529,4.1556,4.152,4.1687,4.169,4.1693,4.1694,4.1699,4.1702,0,0,0,0,0,4.1123,4.117,4.1174,4.119,4.1278,4.1339,4.1351,4.1375,4.1364,4.1388,4.1419,4.1424,4.1544,4.1522,4.1537,4.1566,4.1685,4.1689,4.1693,4.1693,4.1698,4.1702,0,0,0,0,0,0,4.1117,4.1177,4.1182,4.1248,4.1288,4.1341,4.1373,4.138,4.1425,4.1423,4.1452,4.1465,4.1525,4.1552,4.1526,4.1628,4.1614,4.1621,4.1608,4.1614,4.1618,4.161,4.1525,0,0,0,0,0,4.1123,4.1168,4.1218,4.1271,4.1291,4.1328,4.1356,4.1372,4.1415,4.1432,4.1467,4.1509,4.1556,4.1587,4.1633,4.1699,4.1711,4.1726,4.173,4.1733,4.1738,4.1775,4.1782,4.1706,4.1706,4.1706,0,0,4.1137,4.1175,4.1202,4.1271,4.1304,4.135,4.1343,4.1391,4.1426,4.144,4.15,4.1527,4.1576,4.164,4.167,4.1664,4.1762,4.1738,4.174,4.1743,4.1779,4.1786,4.1792,4.1709,4.1708,4.1708,0,0,4.1184,4.1218,4.1265,4.1299,4.1349,4.1373,4.1385,4.1437,4.1455,4.1517,4.1528,4.1569,4.165,4.1684,4.1712,4.1772,4.1779,4.1787,4.1808,4.1843,4.1848,4.1854,4.1875,4.1882,4.1792,4.1792,4.1792,0,4.1194,4.1263,4.1289,4.1337,4.1367,4.1382,4.143,4.1461,4.1524,4.1544,4.1537,4.1638,4.1672,4.1744,4.1758,4.1781,4.1795,4.178,4.1846,4.1851,4.1857,4.1877,4.1885,4.1793,4.1793,4.1793,4.1793,0,4.1273,4.1321,4.1353,4.1413,4.1447,4.1495,4.1527,4.1559,4.1572,4.1597,4.1659,4.17,4.1755,4.1773,4.1786,4.1847,4.1842,4.184,4.1825,4.1864,4.1883,4.1891,4.1794,4.1793,4.1793,4.1793,0,0,4.1319,4.1392,4.1403,4.143,4.1487,4.1524,4.1573,4.1626,4.1652,4.1695,4.1736,4.1804,4.1803,4.1834,4.1851,4.1882,4.1927,4.1877,4.1878,4.1884,4.1996,4.1996,4.2004,4.1931,4.1933,4.1934,4.1991,0,4.1372,4.1459,4.1483,4.1556,4.1601,4.1615,4.1658,4.1697,4.1722,4.1764,4.1792,4.1839,4.1834,4.1853,4.1884,4.1915,4.1949,4.1911,4.197,4.1972,4.1956,4.2015,4.2016,4.2067,4.1999,4.2,4.2001,0,4.1445,4.1489,4.1567,4.1617,4.1637,4.1674,4.1725,4.1764,4.1809,4.1825,4.1861,4.1875,4.1927,4.191,4.1981,4.1955,4.198,4.1999,4.2002,4.2008,4.1988,4.2021,4.2084,4.2092,4.2014,4.2013,4.2012,0,4.147,4.1548,4.1605,4.1628,4.1688,4.1714,4.1741,4.1785,4.1815,4.1859,4.1879,4.1929,4.1956,4.1994,4.2021,4.2007,4.209,4.2076,4.2105,4.2104,4.2121,4.2119,4.2188,4.2139,4.2139,4.2139,4.2138,0,4.1526,4.1573,4.1617,4.1651,4.1704,4.1732,4.1783,4.1811,4.1849,4.189,4.1906,4.1943,4.1978,4.202,4.2042,4.2097,4.211,4.2124,4.2129,4.2122,4.212,4.2139,4.2135,4.2141,4.214,4.214,4.2139,0,4.1562,4.1593,4.1655,4.1708,4.1722,4.1759,4.1803,4.1838,4.1863,4.1914,4.1928,4.1968,4.2019,4.205,4.2114,4.2129,4.219,4.2194,4.2174,4.2176,4.2202,4.2199,4.2285,4.2297,4.2241,4.2241,4.2242,0,4.1595,4.1631,4.1688,4.1716,4.1742,4.1787,4.1818,4.1847,4.1878,4.1932,4.196,4.2011,4.2054,4.2134,4.2169,4.2218,4.2223,4.225,4.2231,4.2222,4.2223,4.222,4.2223,4.2253,4.2253,4.2254,4.2254,0,4.1651,4.1665,4.1708,4.1757,4.1793,4.1833,4.1873,4.1896,4.1932,4.1966,4.2018,4.205,4.2116,4.2167,4.2219,4.2246,4.2256,4.226,4.2269,4.2262,4.2248,4.2255,4.2182,4.2258,4.2257,4.2257,4.2257,4.2257,4.1686,4.1719,4.1763,4.1811,4.1844,4.1881,4.1916,4.1946,4.1989,4.2044,4.2059,4.2113,4.2157,4.2228,4.2257,4.2299,4.2296,4.2309,4.2312,4.2315,4.2315,4.2242,4.2309,4.2309,4.2309,4.2309,4.2309,0,4.1742,4.1771,4.1815,4.187,4.1908,4.1914,4.1959,4.199,4.2037,4.2077,4.2118,4.2177,4.2227,4.2266,4.2317,4.2343,4.2349,4.2355,4.2353,4.2359,4.2316,4.2302,4.235,4.235,4.235,4.235,4.235,4.235,4.1775,4.183,4.1849,4.1921,4.1951,4.2003,4.2028,4.2062,4.2094,4.2159,4.22,4.2225,4.2265,4.2319,4.2364,4.2375,4.2392,4.2398,4.2409,4.2367,4.2362,4.2358,4.2346,4.2402,4.2402,4.2449,4.2449,4.2449]},{"header":{"parameterUnit":"m.s-1","parameterCategory":1,"la1":30.2991,"la2":30.254,"lo1":-89.0895,"lo2":-89.0444,"dy":0.0017,"dx":0.0017,"nx":28,"ny":28,"refTime":"2025-06-09T09:00:00:Z","depth":0,"parameterNumber":3,"parameterNumberName":"V-component_of_WINDS"},"data":[0,0,0,0,0,0,0,0,0,0,0,0,0,0,0,0,0,0,0,0,0,0,0,0,0,0,0,0,0,0,0,0,0,0,0,0,0,0,0,0,0,0,0,0,0,0,0,0,0,0,0,0,0,0,0,0,0,0,4.0065,4.0066,0,4.0076,4.0076,4.0076,4.0045,4.0044,4.0043,4.0042,4.0051,4.0052,4.0053,0,0,0,0,0,0,0,0,0,0,0,0,0,4.0016,4.0017,4.0065,4.0066,4.0066,4.0076,4.0076,4.0076,4.0045,4.0044,4.0042,4.0041,4.005,4.0051,4.0053,0,0,0,0,0,0,0,0,0,0,0,0,0,4.0033,4.0017,4.0065,4.0051,4.005,4.0076,4.0076,4.0076,4.0045,4.0044,4.0042,4.0041,4.005,4.0051,4.0053,4.0092,0,0,4.0058,4.0059,0,0,0,0,0,0,0,0,4.0032,4.0035,4.0053,4.0052,4.0051,4.0058,4.0062,4.0082,4.0045,4.0047,4.0042,4.004,4.0054,4.0055,4.006,4.0093,4.0093,4.0058,4.0059,4.006,4.0061,0,0,0,0,0,0,0,4.0031,4.0034,4.007,4.0054,4.0052,4.0044,4.0045,4.0065,4.0058,4.0047,4.0044,4.0046,4.0053,4.0059,4.006,4.0093,4.0058,4.006,4.0061,4.0062,4.0158,4.0159,0,0,0,0,0,0,4.0032,4.0034,4.0069,4.007,4.0038,4.0046,4.0047,4.0057,4.0058,4.0057,4.0047,4.0045,4.0056,4.0058,4.006,4.0106,4.006,4.0062,4.0063,4.0156,4.0158,4.016,0,0,0,0,0,0,4.0031,4.0035,4.0069,4.0051,4.0055,4.0048,4.006,4.0058,4.0063,4.0059,4.0057,4.0055,4.0055,4.0058,4.0085,4.0106,4.0062,4.0064,4.0155,4.0157,4.0159,4.0198,0,0,0,0,0,0,4.003,4.0035,4.0051,4.0052,4.0056,4.0094,4.0061,4.0059,4.0067,4.0063,4.0065,4.0064,4.0054,4.0082,4.0086,4.0107,4.0065,4.0153,4.0156,4.0158,4.0195,4.0201,4.0207,0,0,0,0,0,4.0028,4.0061,4.0052,4.0056,4.0075,4.0095,4.0097,4.0086,4.0069,4.0084,4.008,4.0064,4.0103,4.0085,4.009,4.0111,4.0151,4.0155,4.0158,4.0192,4.02,4.0207,0,0,0,0,0,0,4.0062,4.0061,4.005,4.0085,4.009,4.009,4.0108,4.0095,4.0105,4.0102,4.0087,4.0088,4.0117,4.0117,4.0097,4.0149,4.0124,4.0129,4.0148,4.0156,4.0162,4.0161,4.0067,0,0,0,0,0,4.0073,4.009,4.0088,4.0118,4.0122,4.0115,4.0123,4.0114,4.0119,4.0121,4.012,4.0125,4.0138,4.0147,4.0159,4.0195,4.0194,4.0212,4.0218,4.0223,4.0227,4.0245,4.0253,4.0171,4.0171,4.0171,0,0,4.0097,4.0098,4.011,4.0125,4.0128,4.0146,4.0117,4.0136,4.0148,4.0124,4.0149,4.0148,4.0152,4.0184,4.0198,4.0185,4.0249,4.0228,4.0232,4.0233,4.025,4.0257,4.0264,4.0174,4.0173,4.0173,0,0,4.0148,4.0152,4.0177,4.0181,4.0187,4.0182,4.0188,4.019,4.0188,4.0214,4.0195,4.0209,4.0233,4.0237,4.0242,4.0295,4.028,4.03,4.0331,4.0349,4.0356,4.0361,4.038,4.0387,4.0304,4.0304,4.0304,0,4.0177,4.0203,4.0192,4.0213,4.0219,4.0199,4.0224,4.0228,4.0237,4.0242,4.0228,4.0257,4.0258,4.029,4.0303,4.0308,4.0314,4.0299,4.0356,4.0361,4.0366,4.0384,4.0391,4.0306,4.0306,4.0305,4.0305,0,4.0237,4.0255,4.0275,4.0285,4.0294,4.0317,4.0309,4.032,4.031,4.0307,4.0332,4.0333,4.0345,4.0352,4.0343,4.0383,4.0374,4.0358,4.0332,4.0377,4.0393,4.0399,4.0309,4.0308,4.0308,4.0307,0,0,4.0309,4.0313,4.0321,4.0325,4.033,4.0343,4.0365,4.0377,4.0386,4.0393,4.0411,4.0431,4.0416,4.0422,4.0413,4.0429,4.0471,4.0411,4.0411,4.0421,4.0514,4.0525,4.0533,4.0461,4.0462,4.0463,4.0513,0,4.036,4.0398,4.0389,4.0426,4.0442,4.0423,4.0442,4.0446,4.0444,4.0456,4.0453,4.0468,4.0447,4.0451,4.0466,4.0463,4.0489,4.0459,4.0476,4.0477,4.0475,4.0542,4.0554,4.0601,4.0519,4.0521,4.0521,0,4.0424,4.0434,4.0473,4.0475,4.0481,4.0499,4.0509,4.0522,4.0527,4.0523,4.053,4.0518,4.0539,4.0514,4.0542,4.0521,4.0528,4.0528,4.0529,4.053,4.0501,4.0543,4.0616,4.0623,4.0531,4.053,4.053,0,4.0472,4.0495,4.0521,4.0526,4.0529,4.0541,4.0543,4.0547,4.0554,4.0563,4.0568,4.0579,4.0585,4.0594,4.0585,4.0567,4.0614,4.0588,4.0611,4.0612,4.0621,4.0621,4.0695,4.0627,4.0627,4.0627,4.0627,0,4.0528,4.0553,4.0543,4.0559,4.0586,4.0575,4.0601,4.0601,4.0604,4.0619,4.0603,4.0618,4.0605,4.0619,4.0612,4.0636,4.0638,4.0636,4.0634,4.0637,4.0637,4.0641,4.0637,4.0629,4.0628,4.0628,4.0628,0,4.0586,4.0581,4.0608,4.0609,4.061,4.063,4.063,4.0645,4.0641,4.066,4.0664,4.0659,4.0673,4.0665,4.068,4.0676,4.0707,4.07,4.0705,4.0703,4.0727,4.0724,4.0805,4.0815,4.0741,4.0742,4.0743,0,4.0622,4.0641,4.0644,4.0653,4.0657,4.0672,4.068,4.067,4.0679,4.0686,4.07,4.0713,4.0723,4.0748,4.0744,4.0756,4.0749,4.0777,4.075,4.0753,4.0749,4.0747,4.0749,4.0781,4.0782,4.0783,4.0784,0,4.0687,4.0683,4.0696,4.0708,4.0718,4.0727,4.0734,4.0743,4.0733,4.0744,4.0759,4.0767,4.0783,4.0796,4.0806,4.0807,4.0794,4.0792,4.0798,4.0801,4.0803,4.0802,4.0719,4.079,4.0789,4.0789,4.0789,4.0788,4.0734,4.075,4.0754,4.0769,4.0774,4.0781,4.0795,4.0793,4.0806,4.0819,4.0812,4.083,4.0833,4.0845,4.0848,4.0862,4.085,4.0859,4.0861,4.0863,4.0866,4.0802,4.0863,4.0863,4.0863,4.0863,4.0863,0,4.0797,4.08,4.0813,4.0824,4.0836,4.0823,4.0831,4.0841,4.0857,4.0862,4.0873,4.089,4.0903,4.0901,4.0913,4.0924,4.0918,4.0927,4.0926,4.0926,4.0876,4.0869,4.0932,4.0932,4.0932,4.0932,4.0932,4.0932,4.0831,4.0857,4.0854,4.0881,4.0883,4.0901,4.0906,4.0913,4.0917,4.0937,4.0948,4.0947,4.0949,4.0961,4.0972,4.0971,4.0976,4.0987,4.0984,4.0937,4.093,4.0923,4.0917,4.0989,4.0989,4.1033,4.1034,4.1034]}]]